OneWeb SL0253

operational
NORAD ID: 48971 Int'l Des: 2021-060 Owner: ONEWEBN Country: UK Constellation: oneweb
LEOCIRCULARPOLARONEWEB_TYPE

About OneWeb SL0253

Description loading...

Live Position

Loading 3D Globe...

Upcoming Passes

Altitude History

Altitude vs Time

uPlot chart will show altitude changes over time

Two-Line Element Set

1 48971U 21060E 25305.61377624 .00000034 00000-0 55333-4 0 9999
2 48971 87.8994 274.1047 0002038 89.1893 270.9471 13.16591495209647
Epoch: Nov 1, 2025 • Age: 12 hours

Current Status

Altitude 1213.3 km
Velocity 7.25 km/s
Sub-Earth Point -38.27°S, 12.35°E
Launch Date Jul 1, 2021
Age 4.3 years
Type internet

Technical Details

Classification Payload
Mass 148.00 kg
Dry Mass 140.00 kg
Total Mass 148.00 kg
Length 1.30 m
Diameter 1.00 m
Span 5.00 m
Shape Trapezoid+2 pan
Manufacturer ONEWUS
Bus Type ARROW
Phase Status In Orbit
Owner/State ONEWEBN/UK

Large Constellations

Loading constellations...